K5NOC-12 Weather Reports


Display with metric or nautical units.
time (UTC)temp
F
wind
direction
speed
MPH
gust
MPH
rain 1hr
in
rain 24hr
in
rain mn
in
humidity
%
barometer
mb
20260906210726 94 112 2.0 6.0 0.00 0.00 0.00 32 1016.7
20260906205226 94 125 6.0 12.0 0.00 0.00 0.00 32 1016.7
20260906203725 93 95 3.0 10.0 0.00 0.00 0.00 33 1016.9
20260906202225 93 115 5.0 9.0 0.00 0.00 0.00 34 1017.0
20260906200725 93 99 9.0 13.0 0.00 0.00 0.00 35 1017.0
20260906195225 91 112 5.0 3.0 0.00 0.00 0.00 36 1017.4
20260906193725 92 136 5.0 5.0 0.00 0.00 0.00 36 1017.6
20260906192225 91 117 5.0 3.0 0.00 0.00 0.00 37 1017.7
20260906190725 92 126 2.0 3.0 0.00 0.00 0.00 36 1017.9
20260906185225 92 143 5.0 10.0 0.00 0.00 0.00 36 1018.1
20260906183725 92 152 10.0 12.0 0.00 0.00 0.00 36 1018.4
20260906182225 91 112 5.0 9.0 0.00 0.00 0.00 38 1018.6
20260906180724 91 111 6.0 7.0 0.00 0.00 0.00 38 1018.8
20260906175224 90 157 6.0 6.0 0.00 0.00 0.00 39 1019.0
20260906173724 90 121 6.0 9.0 0.00 0.00 0.00 40 1019.2
20260906172224 90 162 10.0 14.0 0.00 0.00 0.00 41 1019.3
20260906170724 89 122 6.0 6.0 0.00 0.00 0.00 42 1019.3
20260906165224 89 145 8.0 12.0 0.00 0.00 0.00 43 1019.3
20260906163724 88 171 5.0 6.0 0.00 0.00 0.00 46 1019.5
20260906162224 88 158 15.0 15.0 0.00 0.00 0.00 47 1019.6
20260906160723 87 139 15.0 15.0 0.00 0.00 0.00 46 1019.5
20260906155223 86 158 15.0 15.0 0.00 0.00 0.00 49 1019.1
20260906153723 85 205 6.0 10.0 0.00 0.00 0.00 50 1019.1
20260906152223 84 142 6.0 12.0 0.00 0.00 0.00 52 1019.1
20260906150723 84 149 8.0 14.0 0.00 0.00 0.00 52 1019.0
20260906145223 83 149 7.0 10.0 0.00 0.00 0.00 53 1019.1
20260906143723 81 155 7.0 8.0 0.00 0.00 0.00 54 1019.1
20260906142222 81 178 6.0 9.0 0.00 0.00 0.00 55 1019.0
20260906140722 79 165 3.0 6.0 0.00 0.00 0.00 57 1018.9
20260906135222 77 153 3.0 5.0 0.00 0.00 0.00 59 1018.8
20260906133722 76 153 6.0 8.0 0.00 0.00 0.00 60 1018.5
20260906132222 75 149 6.0 10.0 0.00 0.00 0.00 62 1018.4
20260906130722 74 156 3.0 5.0 0.00 0.00 0.00 62 1018.3
20260906125222 74 149 5.0 5.0 0.00 0.00 0.00 63 1018.3
20260906123722 74 135 3.0 3.0 0.00 0.00 0.00 62 1018.3
20260906122222 75 116 1.0 3.0 0.00 0.00 0.00 61 1018.1
20260906120722 75 118 3.0 3.0 0.00 0.00 0.00 61 1018.0
20260906115221 75 124 2.0 5.0 0.00 0.00 0.00 60 1017.9
20260906113721 75 118 2.0 3.0 0.00 0.00 0.00 60 1018.0
20260906112221 75 140 2.0 3.0 0.00 0.00 0.00 60 1017.9
20260906110721 75 130 2.0 3.0 0.00 0.00 0.00 59 1018.0
20260906105221 75 114 2.0 3.0 0.00 0.00 0.00 59 1017.9
20260906103721 76 109 2.0 2.0 0.00 0.00 0.00 58 1017.8
20260906102221 76 144 2.0 2.0 0.00 0.00 0.00 58 1017.6
20260906100721 76 158 3.0 5.0 0.00 0.00 0.00 57 1017.5
20260906095220 77 161 2.0 3.0 0.00 0.00 0.00 56 1017.6
20260906093720 77 131 2.0 3.0 0.00 0.00 0.00 56 1017.6
20260906092220 77 144 3.0 5.0 0.00 0.00 0.00 56 1017.6
20260906090720 77 145 0.0 3.0 0.00 0.00 0.00 55 1017.7
20260906085220 78 128 3.0 7.0 0.00 0.00 0.00 54 1017.7
20260906083720 78 163 2.0 3.0 0.00 0.00 0.00 54 1017.7
20260906082220 78 156 5.0 7.0 0.00 0.00 0.00 53 1017.5
20260906080720 78 142 5.0 5.0 0.00 0.00 0.00 53 1017.6
20260906075219 79 147 5.0 7.0 0.00 0.00 0.00 53 1017.6
20260906073719 79 141 5.0 9.0 0.00 0.00 0.00 52 1017.6
20260906072219 79 128 3.0 7.0 0.00 0.00 0.00 52 1017.6
20260906070719 80 135 5.0 5.0 0.00 0.00 0.00 51 1017.8
20260906065219 80 151 5.0 5.0 0.00 0.00 0.00 50 1017.8
20260906063719 80 126 6.0 12.0 0.00 0.00 0.00 50 1017.7
20260906062219 81 114 3.0 5.0 0.00 0.00 0.00 49 1017.8
20260906060719 81 115 6.0 8.0 0.00 0.00 0.00 48 1017.8
20260906055219 82 139 6.0 10.0 0.00 0.00 0.00 47 1017.8
20260906053718 83 131 6.0 8.0 0.00 0.00 0.00 46 1017.8
20260906052218 83 121 5.0 9.0 0.00 0.00 0.00 45 1017.7
20260906050718 84 126 5.0 7.0 0.00 0.00 0.00 45 1017.7
20260906045218 84 124 3.0 7.0 0.00 0.00 0.00 44 1017.7
20260906043718 85 119 5.0 6.0 0.00 0.00 0.00 44 1017.7
20260906042218 85 123 2.0 5.0 0.00 0.00 0.00 43 1017.7
20260906040718 85 122 5.0 5.0 0.00 0.00 0.00 42 1017.7
20260906035218 85 114 3.0 10.0 0.00 0.00 0.00 42 1017.6
20260906033717 86 133 6.0 7.0 0.00 0.00 0.00 41 1017.7
20260906032217 87 130 3.0 7.0 0.00 0.00 0.00 40 1017.6
20260906030717 87 128 5.0 7.0 0.00 0.00 0.00 40 1017.3
20260906025217 87 130 6.0 9.0 0.00 0.00 0.00 39 1016.9
20260906023717 88 109 7.0 9.0 0.00 0.00 0.00 38 1016.6
20260906022217 88 114 7.0 15.0 0.00 0.00 0.00 38 1016.5
20260906020717 88 112 6.0 12.0 0.00 0.00 0.00 39 1016.5
20260906015217 89 91 6.0 7.0 0.00 0.00 0.00 39 1016.1
20260906013717 89 121 5.0 12.0 0.00 0.00 0.00 39 1015.7
20260906012217 90 111 5.0 8.0 0.00 0.00 0.00 38 1015.7
20260906010716 90 92 5.0 7.0 0.00 0.00 0.00 37 1015.6
20260906005216 91 111 7.0 8.0 0.00 0.00 0.00 36 1015.5
20260906003716 92 105 5.0 7.0 0.00 0.00 0.00 36 1015.5
20260906002216 92 112 7.0 9.0 0.00 0.00 0.00 36 1015.5
20260906000716 93 109 5.0 9.0 0.00 0.00 0.00 35 1015.2
20260905235216 94 118 1.0 3.0 0.00 0.00 0.00 32 1014.9
20260905233716 94 145 5.0 8.0 0.00 0.00 0.00 32 1014.6
20260905232216 94 127 5.0 6.0 0.00 0.00 0.00 32 1014.2
20260905230716 95 117 5.0 3.0 0.00 0.00 0.00 31 1014.3
20260905225216 96 108 7.0 12.0 0.00 0.00 0.00 30 1014.2
20260905223715 96 92 2.0 3.0 0.00 0.00 0.00 30 1014.3
20260905222215 96 131 5.0 8.0 0.00 0.00 0.00 30 1014.3
20260905220715 96 155 8.0 12.0 0.00 0.00 0.00 30 1014.5
20260905215215 96 146 10.0 13.0 0.00 0.00 0.00 31 1014.6
20260905213715 96 120 6.0 10.0 0.00 0.00 0.00 32 1014.8
20260905212215 96 117 1.0 2.0 0.00 0.00 0.00 31 1015.0